517  
ASUS43 KFSD 181710  
RWRFSD  
 
WEATHER ROUNDUP FOR SE SOUTH DAKOTA/SW MINNESOTA/NW IOWA  
NATIONAL WEATHER SERVICE SIOUX FALLS SD  
1200 PM CDT TUE SEP 18 2018  
 
NOTE: "FAIR" INDICATES FEW OR NO CLOUDS BELOW 12,000 FEET WITH NO  
SIGNIFICANT WEATHER AND OR S TO VISIBILITY
.  
 
 
SDZ038>040-050-052>070-181800-  
SOUTHEAST SOUTH DAKOTA  
 
CITY SKY/WX TMP DP RH WIND PRES REMARKS
 
BROOKINGS CLOUDY 63 57 81 NE8 29.99S  
CHAMBERLAIN PTSUNNY 62 55 77 N6 30.00F  
HURON SUNNY 67 56 67 NE10 29.98F  
MADISON FAIR 64 63 94 NE8 29.99S  
MITCHELL PTSUNNY 65 57 75 W5 29.99S  
SIOUX FALLS CLOUDY 66 63 90 SW6 29.99R  
WINNER CLOUDY 58 53 84 NE8 29.99F  
YANKTON CLOUDY 67 62 84 N3 30.00R  

 
 
MNZ071-072-080-081-089-090-097-098-181800-  
SOUTHWEST MINNESOTA  
 
CITY SKY/WX TMP DP RH WIND PRES REMARKS
 
FAIRMONT CLOUDY 65 62 90 SE16G26 29.96S  
JACKSON MOSUNNY 64 64 100 SE14G23 29.95R  
LUVERNE CLOUDY 63 61 94 SE6 30.00R  
MARSHALL CLOUDY 63 58 83 N7 29.99R  
MONTEVIDEO CLOUDY 64 54 68 E9 29.97S  
PIPESTONE CLOUDY 63 59 88 NE8 29.99R  
REDWOOD FALLS PTSUNNY 64 60 87 E9 29.98R  
TRACY PTSUNNY 64 61 88 NE9 29.99R  
WINDOM MOSUNNY 66 63 88 SE13 29.96S  
WORTHINGTON CLOUDY 65 62 90 NE6 29.99R  

 
 
IAZ001>003-012>014-020>022-031-032-NEZ013-014-SDZ071-181800-  
NORTHWEST IOWA  
 
CITY SKY/WX TMP DP RH WIND PRES REMARKS
 
CHEROKEE TSTM 64 64 97 SE13G22 29.97R  
DENISON CLOUDY 68 63 83 E22G35 29.99F  
ESTHERVILLE MOSUNNY 64 63 96 SE17G32 29.93F  
ORANGE CITY MOSUNNY 68 64 88 SE6 29.99R  
SHELDON PTSUNNY 66 64 94 SE16G25 29.95R  
SIOUX CITY LGT RAIN 63 62 97 SE21G30 29.94F FOG  
SPENCER CLOUDY 65 62 90 SE23G33 29.94F  
STORM LAKE CLOUDY 63 63 100 E15G24 29.99F  

 
 
ABBREVIATIONS USED IN REMARKS  
TC - TEMPERATURE IN CELSIUS  
WCI - WIND CHILL INDEX  
HX - HEAT INDEX  
VSB - VISIBILITY  
 
 
 
CLICK HERE TO GO TO PREVIOUS BULLETINS.

The Nexlab SD Page
The Nexlab IA Page
The Nexlab MN Page
The Nexlab NE Page Main Text Page